Torna al catalogo

CZ-4B DEB

AttivoSSO
NORAD 38311·DEBRIS·🇨🇳 China

Lanciato Dec 22, 2011 da Taiyuan Satellite Launch Center

Loading…

Prossimi Passaggi (prossime 24 ore)

TLE

AggiornatoSource: Space-Track

Epoca: Sep 14, 2026, 10:12 UTC

1 38311U 11079E   26257.42506774  .00001210  00000-0  28923-3 0  9992
2 38311  98.1854 238.8749 0099851 221.7444 291.7601 14.52436871772081

Traccia CZ-4B DEB in tempo reale con AllMySat

Download on the App Store